SCP
-0 0 0 0 0 0 0 0 0 0 0 0 0 0 0 0 0 0 0 0 1 1 1 1 1 1 1 1 1 1 1 1 1 1 1 1 1 1 0 0 1 1 1
-0 0 0 0 0 0 0 0 0 0 0 0 0 0 0 0 0 0 0 1 1 1 1 1 1 1 1 1 1 1 1 1 0 0 0 0 0 0 0 0 0 0 0
0 0 0 0 0 0 0 0 0 0 0 0 0 0 0 1 1 1 1 1 0 1 1 1 1 1 2 1 1 2 1 0 0 0 0 0 0 0 0 0 0 0 0
0 1 1 1 0 0 1 0 0 0 0 0 1 1 1 0 0 0 0 0 0 1 1 1 1 1 1 1 1 1 1 0 0 0 0 0 0 0 0 0 0 0 0
0 1 1 1 1 1 1 1 1 1 1 1 1 0 0 0 0 0 0 0 0 0 1 1 1 1 1 1 1 1 1 1 0 0 0 0 0 0 0 0 0 0 0
2 2 1 1 1 1 1 1 1 1 1 0 0 0 0 0 0 0 0 0 0 0 1 1 1 1 1 1 1 1 1 1 1 0 0 0 0 0 0 0 0 0 0
2 2 2 1 1 1 1 1 1 1 0 0 0 0 0 0 0 0 0 1 0 0 0 0 1 1 1 1 1 1 1 1 1 1 1 0 0 0 0 0 0 0 0
2 2 1 1 2 2 1 1 1 0 0 0 0 0 0 0 0 0 0 0 0 -0 0 0 1 1 1 0 1 1 1 1 2 2 1 1 0 0 0 0 0 0 0
2 2 2 2 2 2 2 1 1 0 0 0 0 0 0 0 0 0 0 0 0 0 0 0 0 1 0 0 0 1 2 1 2 2 2 1 0 0 0 0 0 0 0
1 1 1 1 1 1 1 1 1 1 0 0 0 0 0 0 0 0 0 0 0 0 0 0 0 0 0 0 0 1 1 1 1 1 1 1 0 0 0 0 0 0 0
1 2 2 1 1 1 1 1 0 0 1 1 1 0 0 0 0 0 0 0 0 0 0 0 0 0 0 0 0 0 0 1 1 2 1 1 0 0 0 0 0 0 0
1 1 1 1 1 1 1 1 1 1 1 1 1 1 1 0 0 0 0 0 0 0 0 0 0 0 0 0 0 0 0 0 0 0 0 1 1 0 0 0 0 0 0
1 1 1 1 1 1 0 0 0 0 1 0 0 0 0 0 0 0 0 0 0 0 0 0 0 0 0 0 0 0 0 0 0 0 0 0 0 0 0 0 0 0 0
0 0 0 0 0 0 0 0 0 0 0 0 0 0 0 0 0 0 0 0 0 0 0 0 0 0 0 0 0 0 0 0 0 0 0 0 0 0 0 0 0 0 0
0 0 0 0 0 0 0 0 0 0 0 0 0 0 0 0 0 0 0 0 0 0 0 0 0 0 0 0 0 0 0 0 0 0 0 0 0 0 0 0 0 0 0
0 0 0 0 0 0 0 0 0 0 0 0 0 0 0 0 0 0 0 0 0 0 0 0 0 0 0 0 0 0 0 0 0 0 0 0 0 0 0 0 0 0 0
0 0 0 0 0 0 0 0 0 0 0 0 0 0 0 0 0 0 0 0 0 0 0 0 0 0 0 0 0 0 0 0 0 0 0 0 0 0 0 0 0 0 0
0 0 0 0 0 0 0 0 0 0 0 0 0 0 0 0 0 0 0 0 0 0 0 0 0 0 0 0 0 0 0 0 0 0 0 0 0 0 0 0 0 0 0
0 0 0 0 0 0 0 0 0 0 0 0 0 0 0 0 0 0 0 0 0 0 0 0 0 0 0 0 0 0 0 0 0 0 0 0 0 0 0 0 0 0 0
0 0 0 0 0 0 0 0 0 0 0 0 0 0 0 0 0 0 0 0 0 0 0 0 0 0 0 0 0 0 0 0 0 0 0 0 0 0 0 0 0 0 0
0 0 0 0 0 0 0 0 0 0 0 0 0 0 0 0 0 0 0 0 0 0 0 0 0 0 0 0 0 0 0 0 0 0 0 0 0 0 0 0 0 0 -0
0 0 0 0 0 0 0 0 0 0 0 0 0 0 0 0 0 0 0 0 0 0 0 0 0 0 0 0 0 0 0 0 0 0 0 0 0 0 0 0 0 -0 0
0 0 0 0 0 0 0 0 0 0 0 0 0 0 0 0 0 0 0 0 0 0 0 0 0 0 0 0 0 0 0 0 0 0 0 0 0 0 0 0 0 0 0
0 0 0 0 0 0 0 0 0 0 0 0 0 0 0 0 0 0 0 0 0 0 0 0 0 0 0 0 0 0 0 0 0 0 0 0 0 0 0 0 0 0 0
0 0 0 0 0 0 0 0 0 0 0 -0 0 0 0 0 -0 0 0 0 0 0 0 0 0 0 0 0 0 0 0 0 0 0 0 0 0 0 0 0 0 0 0
0 0 0 0 0 0 0 0 0 0 0 0 0 0 0 0 0 -0 0 0 0 0 0 0 0 0 0 0 0 0 0 0 0 -0 0 0 0 0 0 0 0 -0 0
Wind_Speed_500mb
21 12 13 11 14 15 12 17 17 18 18 26 25 28 27 35 40 41 35 20 23 28 31 30 35 41 41 37 36 32 36 44 45 41 34 23 25 43 35 49 58 50 66
21 16 12 22 15 16 16 16 16 20 26 21 23 26 34 41 38 41 47 50 43 38 34 43 43 42 43 43 42 44 48 42 39 34 30 46 45 39 46 48 42 48 52
21 22 18 11 20 16 23 24 22 30 33 35 39 43 44 49 45 41 45 52 50 43 46 55 56 56 53 54 48 51 42 37 37 43 49 47 44 50 52 48 51 55 58
14 26 22 21 17 24 27 30 34 39 39 33 33 33 42 46 46 42 44 48 54 49 53 56 64 60 60 53 48 43 43 42 43 46 50 50 51 52 53 56 59 63 68
20 27 25 30 38 22 26 35 38 36 37 37 45 46 49 54 58 60 57 52 57 60 56 47 38 31 31 32 32 30 30 34 39 45 47 51 55 57 59 61 63 64 70
28 25 26 35 37 39 29 27 33 40 43 47 50 51 41 43 47 54 58 45 39 29 24 27 26 25 23 26 26 26 32 36 39 42 50 54 58 64 63 62 70 70 68
33 33 33 31 40 43 43 43 42 47 53 50 43 40 35 36 25 25 31 38 35 27 20 29 35 31 33 30 34 35 40 45 49 57 59 64 70 69 67 67 67 67 68
34 36 32 26 32 40 43 39 39 41 43 36 28 27 31 37 17 34 20 10 15 26 40 43 37 38 37 43 46 48 50 56 60 63 65 69 71 70 72 74 72 71 74
27 26 26 27 29 35 39 36 36 33 33 23 24 26 14 10 40 43 36 33 22 25 30 38 43 56 52 52 55 58 62 65 65 67 72 69 71 72 72 72 72 76 79
24 24 28 27 30 29 25 24 28 26 24 26 31 28 28 28 35 33 21 33 35 30 28 32 44 51 49 44 51 58 61 64 67 66 65 68 70 69 68 66 71 76 81
21 29 32 25 20 20 22 20 15 14 23 31 30 28 28 28 32 34 42 45 41 41 44 49 49 55 58 57 51 50 56 64 68 62 64 64 60 61 60 65 68 73 84
19 25 22 19 18 16 12 14 21 24 28 30 32 33 32 29 29 23 34 49 56 60 59 60 62 65 67 70 73 71 64 63 63 57 57 59 58 62 62 69 74 77 83
18 16 17 13 13 14 17 19 23 27 31 34 28 30 31 32 35 40 47 55 54 62 64 63 65 69 66 62 65 59 61 62 61 63 65 64 68 73 78 76 68 70 79
15 11 12 12 14 19 21 25 27 26 32 35 33 35 40 41 40 39 41 49 68 67 67 69 68 55 55 64 69 65 70 58 58 65 68 71 72 77 81 65 59 63 65
13 14 14 15 16 19 25 28 25 24 28 33 35 38 42 47 46 46 49 49 52 64 61 55 58 56 58 61 62 69 76 82 86 91 82 81 74 67 62 61 59 60 55
11 7 6 7 8 13 20 24 26 26 30 34 39 44 46 51 54 53 52 49 46 58 79 63 58 57 63 68 73 81 90 91 81 75 72 75 72 59 51 53 54 51 50
11 8 7 8 12 16 22 26 31 35 39 43 47 51 54 56 58 55 54 51 52 54 73 89 82 88 87 84 77 73 71 65 62 63 63 55 48 49 59 55 53 49 54
5 5 9 11 14 20 27 30 34 40 45 48 52 57 60 57 52 47 45 48 54 56 66 87 87 80 77 80 83 81 72 73 71 62 61 59 53 46 43 48 47 55 60
3 8 11 14 18 22 26 33 39 44 49 49 44 39 38 35 37 44 52 57 59 59 61 70 85 85 89 91 92 86 90 78 69 71 71 61 55 52 55 58 58 60 66
4 6 9 16 21 28 34 41 40 32 30 32 30 29 32 37 43 49 54 57 64 69 76 81 87 90 91 91 79 77 75 69 65 66 63 63 68 73 71 63 68 66 69
10 12 14 17 25 32 36 31 27 27 28 27 28 34 39 41 41 50 57 62 67 72 76 83 86 74 61 70 66 65 66 68 64 62 61 59 64 68 64 72 70 76 76
12 12 19 19 24 29 30 28 29 30 31 32 35 38 37 44 54 60 65 66 71 80 74 58 58 66 67 64 62 59 65 68 65 61 44 48 47 53 54 53 64 69 53
18 19 18 20 22 25 29 29 34 32 28 32 37 45 50 56 64 71 64 55 53 45 46 54 58 60 62 58 55 54 57 66 67 63 51 56 50 51 50 47 35 28 30
27 30 24 19 21 25 28 28 34 34 41 40 44 53 61 66 67 63 55 52 53 48 46 52 53 52 53 54 44 51 56 61 61 53 41 48 40 39 37 29 21 22 28
24 25 23 18 21 22 21 29 37 43 51 54 54 57 62 64 59 54 55 57 52 47 43 40 43 44 39 33 28 42 50 49 49 42 31 23 22 25 20 11 14 20 35
24 21 20 20 19 21 25 36 37 46 52 58 57 54 50 51 48 44 46 50 53 49 49 38 38 40 38 43 49 46 38 36 31 23 14 11 21 11 7 5 10 23 28
Wind_Direction_500mb
178 185 245 256 283 276 327 336 324 318 302 301 295 302 299 299 283 283 295 301 282 284 280 287 293 292 291 273 269 274 282 288 269 268 264 261 283 295 290 288 292 298 292
180 195 233 240 267 278 308 301 290 290 284 282 285 288 281 281 284 274 277 275 283 274 275 283 290 289 284 276 274 287 280 264 273 273 262 293 280 272 275 282 287 280 289
196 198 229 239 233 253 263 275 262 266 268 264 262 264 277 271 275 268 257 264 276 285 277 281 289 286 279 279 283 280 264 265 266 271 278 281 275 275 277 280 284 286 285
214 200 216 229 250 254 255 255 266 276 278 275 268 265 273 272 271 267 271 266 275 280 275 276 281 283 281 274 279 272 264 267 272 268 272 278 277 277 282 286 286 288 289
220 229 218 234 238 242 255 266 275 277 281 277 268 269 277 276 277 280 283 281 280 286 282 284 282 287 280 279 278 262 265 272 273 271 273 275 278 281 286 293 295 294 291
227 242 239 238 239 237 241 251 272 275 275 274 283 280 289 291 298 290 284 287 281 280 275 290 298 288 290 295 272 265 267 270 270 275 280 281 283 289 294 297 298 297 293
234 237 251 265 248 256 259 262 274 279 280 285 288 294 284 302 343 321 324 283 282 283 279 275 264 270 281 276 269 263 261 260 273 281 282 287 290 292 292 295 299 301 301
237 247 264 250 246 251 261 273 281 284 285 285 288 301 310 313 325 323 331 348 311 260 275 274 259 274 282 277 283 282 276 284 287 283 283 284 288 288 290 293 300 302 303
231 242 245 258 262 265 273 282 286 285 287 278 288 306 309 308 310 315 294 305 292 287 282 274 268 281 282 278 282 283 281 281 282 278 277 281 284 284 284 290 296 301 302
213 240 253 264 274 283 280 281 286 287 278 286 291 298 294 283 301 307 272 301 305 293 290 292 277 277 271 288 282 278 279 282 281 280 282 283 281 280 282 288 294 299 304
227 235 244 262 277 287 287 287 283 273 281 291 302 299 277 276 279 291 284 295 283 278 279 281 280 282 287 293 294 293 291 289 285 281 275 273 272 277 285 288 292 301 302
223 231 234 261 274 291 295 286 284 282 279 276 273 274 276 280 274 288 290 288 289 285 283 282 280 281 281 285 288 290 289 287 282 264 260 264 272 281 285 289 292 297 296
221 224 227 252 266 283 282 279 275 276 277 277 278 281 284 292 291 291 294 297 298 292 289 284 284 286 293 296 291 296 286 280 279 282 287 288 288 290 295 295 292 292 295
221 217 216 241 267 274 281 281 284 281 282 282 285 285 289 292 296 298 298 299 303 302 299 297 297 292 288 281 282 281 278 284 289 293 294 295 296 298 297 286 286 289 296
207 213 230 247 257 264 278 285 290 289 278 284 289 290 292 292 290 289 292 297 299 304 297 297 295 292 282 278 275 277 279 281 284 291 295 296 295 295 283 277 281 288 293
187 189 212 234 244 267 277 290 300 298 287 287 290 290 289 290 292 294 296 298 298 297 299 300 296 290 287 282 278 279 281 285 286 287 294 295 291 286 277 278 283 286 285
211 221 233 265 284 298 296 300 301 297 296 297 298 300 302 303 302 302 303 303 300 297 297 298 301 304 303 299 297 295 299 300 297 301 301 300 300 291 279 279 282 278 286
215 283 302 313 309 296 300 302 304 310 311 311 310 308 306 306 308 312 308 304 302 301 300 299 302 305 307 309 307 307 304 303 298 299 302 301 294 290 290 277 275 279 285
12 2 351 325 311 307 309 312 312 310 309 310 316 321 322 326 325 320 310 304 304 304 302 300 302 303 303 305 305 301 300 302 297 298 294 291 287 286 288 279 276 280 281
346 348 321 312 305 307 312 317 321 329 333 330 326 329 334 332 322 312 309 308 307 305 304 303 303 305 304 306 305 300 299 294 289 283 278 278 279 282 287 277 277 280 279
331 310 296 292 306 313 324 346 355 350 349 344 343 344 333 324 309 310 310 309 310 310 310 309 305 308 312 313 312 312 309 311 307 292 288 286 280 279 278 270 272 275 285
328 318 325 341 348 356 351 10 4 358 352 354 351 346 342 340 328 319 313 309 308 307 307 311 308 308 309 313 314 314 313 311 302 313 301 290 283 280 279 276 278 282 275
8 5 25 11 357 352 12 16 8 5 2 4 2 357 348 336 330 330 328 327 332 326 320 315 313 310 311 315 313 315 317 313 305 300 291 285 283 276 280 289 291 258 260
35 44 48 29 10 17 9 12 18 18 23 16 10 358 344 340 339 340 340 337 333 332 331 333 325 320 314 315 311 317 315 307 308 303 308 293 298 284 280 290 260 273 290
52 62 54 41 34 25 7 17 17 25 25 18 10 358 351 349 350 347 342 347 347 347 341 337 334 333 323 331 318 321 325 312 311 311 335 302 314 302 291 227 270 289 297
65 83 70 52 41 24 15 20 21 34 27 19 15 8 4 2 355 351 351 351 349 351 348 358 6 1 360 358 340 327 316 310 306 314 354 325 342 327 9 210 249 283 298
Wind_Speed_850mb
21 12 13 11 14 15 12 17 17 18 18 26 25 28 27 35 40 41 35 20 23 28 31 30 35 41 41 37 36 32 36 44 45 41 34 23 25 43 35 49 58 50 66
21 16 12 22 15 16 16 16 16 20 26 21 23 26 34 41 38 41 47 50 43 38 34 43 43 42 43 43 42 44 48 42 39 34 30 46 45 39 46 48 42 48 52
21 22 18 11 20 16 23 24 22 30 33 35 39 43 44 49 45 41 45 52 50 43 46 55 56 56 53 54 48 51 42 37 37 43 49 47 44 50 52 48 51 55 58
14 26 22 21 17 24 27 30 34 39 39 33 33 33 42 46 46 42 44 48 54 49 53 56 64 60 60 53 48 43 43 42 43 46 50 50 51 52 53 56 59 63 68
20 27 25 30 38 22 26 35 38 36 37 37 45 46 49 54 58 60 57 52 57 60 56 47 38 31 31 32 32 30 30 34 39 45 47 51 55 57 59 61 63 64 70
28 25 26 35 37 39 29 27 33 40 43 47 50 51 41 43 47 54 58 45 39 29 24 27 26 25 23 26 26 26 32 36 39 42 50 54 58 64 63 62 70 70 68
33 33 33 31 40 43 43 43 42 47 53 50 43 40 35 36 25 25 31 38 35 27 20 29 35 31 33 30 34 35 40 45 49 57 59 64 70 69 67 67 67 67 68
34 36 32 26 32 40 43 39 39 41 43 36 28 27 31 37 17 34 20 10 15 26 40 43 37 38 37 43 46 48 50 56 60 63 65 69 71 70 72 74 72 71 74
27 26 26 27 29 35 39 36 36 33 33 23 24 26 14 10 40 43 36 33 22 25 30 38 43 56 52 52 55 58 62 65 65 67 72 69 71 72 72 72 72 76 79
24 24 28 27 30 29 25 24 28 26 24 26 31 28 28 28 35 33 21 33 35 30 28 32 44 51 49 44 51 58 61 64 67 66 65 68 70 69 68 66 71 76 81
21 29 32 25 20 20 22 20 15 14 23 31 30 28 28 28 32 34 42 45 41 41 44 49 49 55 58 57 51 50 56 64 68 62 64 64 60 61 60 65 68 73 84
19 25 22 19 18 16 12 14 21 24 28 30 32 33 32 29 29 23 34 49 56 60 59 60 62 65 67 70 73 71 64 63 63 57 57 59 58 62 62 69 74 77 83
18 16 17 13 13 14 17 19 23 27 31 34 28 30 31 32 35 40 47 55 54 62 64 63 65 69 66 62 65 59 61 62 61 63 65 64 68 73 78 76 68 70 79
15 11 12 12 14 19 21 25 27 26 32 35 33 35 40 41 40 39 41 49 68 67 67 69 68 55 55 64 69 65 70 58 58 65 68 71 72 77 81 65 59 63 65
13 14 14 15 16 19 25 28 25 24 28 33 35 38 42 47 46 46 49 49 52 64 61 55 58 56 58 61 62 69 76 82 86 91 82 81 74 67 62 61 59 60 55
11 7 6 7 8 13 20 24 26 26 30 34 39 44 46 51 54 53 52 49 46 58 79 63 58 57 63 68 73 81 90 91 81 75 72 75 72 59 51 53 54 51 50
11 8 7 8 12 16 22 26 31 35 39 43 47 51 54 56 58 55 54 51 52 54 73 89 82 88 87 84 77 73 71 65 62 63 63 55 48 49 59 55 53 49 54
5 5 9 11 14 20 27 30 34 40 45 48 52 57 60 57 52 47 45 48 54 56 66 87 87 80 77 80 83 81 72 73 71 62 61 59 53 46 43 48 47 55 60
3 8 11 14 18 22 26 33 39 44 49 49 44 39 38 35 37 44 52 57 59 59 61 70 85 85 89 91 92 86 90 78 69 71 71 61 55 52 55 58 58 60 66
4 6 9 16 21 28 34 41 40 32 30 32 30 29 32 37 43 49 54 57 64 69 76 81 87 90 91 91 79 77 75 69 65 66 63 63 68 73 71 63 68 66 69
10 12 14 17 25 32 36 31 27 27 28 27 28 34 39 41 41 50 57 62 67 72 76 83 86 74 61 70 66 65 66 68 64 62 61 59 64 68 64 72 70 76 76
12 12 19 19 24 29 30 28 29 30 31 32 35 38 37 44 54 60 65 66 71 80 74 58 58 66 67 64 62 59 65 68 65 61 44 48 47 53 54 53 64 69 53
18 19 18 20 22 25 29 29 34 32 28 32 37 45 50 56 64 71 64 55 53 45 46 54 58 60 62 58 55 54 57 66 67 63 51 56 50 51 50 47 35 28 30
27 30 24 19 21 25 28 28 34 34 41 40 44 53 61 66 67 63 55 52 53 48 46 52 53 52 53 54 44 51 56 61 61 53 41 48 40 39 37 29 21 22 28
24 25 23 18 21 22 21 29 37 43 51 54 54 57 62 64 59 54 55 57 52 47 43 40 43 44 39 33 28 42 50 49 49 42 31 23 22 25 20 11 14 20 35
24 21 20 20 19 21 25 36 37 46 52 58 57 54 50 51 48 44 46 50 53 49 49 38 38 40 38 43 49 46 38 36 31 23 14 11 21 11 7 5 10 23 28
Wind_Direction_850mb
178 185 245 256 283 276 327 336 324 318 302 301 295 302 299 299 283 283 295 301 282 284 280 287 293 292 291 273 269 274 282 288 269 268 264 261 283 295 290 288 292 298 292
180 195 233 240 267 278 308 301 290 290 284 282 285 288 281 281 284 274 277 275 283 274 275 283 290 289 284 276 274 287 280 264 273 273 262 293 280 272 275 282 287 280 289
196 198 229 239 233 253 263 275 262 266 268 264 262 264 277 271 275 268 257 264 276 285 277 281 289 286 279 279 283 280 264 265 266 271 278 281 275 275 277 280 284 286 285
214 200 216 229 250 254 255 255 266 276 278 275 268 265 273 272 271 267 271 266 275 280 275 276 281 283 281 274 279 272 264 267 272 268 272 278 277 277 282 286 286 288 289
220 229 218 234 238 242 255 266 275 277 281 277 268 269 277 276 277 280 283 281 280 286 282 284 282 287 280 279 278 262 265 272 273 271 273 275 278 281 286 293 295 294 291
227 242 239 238 239 237 241 251 272 275 275 274 283 280 289 291 298 290 284 287 281 280 275 290 298 288 290 295 272 265 267 270 270 275 280 281 283 289 294 297 298 297 293
234 237 251 265 248 256 259 262 274 279 280 285 288 294 284 302 343 321 324 283 282 283 279 275 264 270 281 276 269 263 261 260 273 281 282 287 290 292 292 295 299 301 301
237 247 264 250 246 251 261 273 281 284 285 285 288 301 310 313 325 323 331 348 311 260 275 274 259 274 282 277 283 282 276 284 287 283 283 284 288 288 290 293 300 302 303
231 242 245 258 262 265 273 282 286 285 287 278 288 306 309 308 310 315 294 305 292 287 282 274 268 281 282 278 282 283 281 281 282 278 277 281 284 284 284 290 296 301 302
213 240 253 264 274 283 280 281 286 287 278 286 291 298 294 283 301 307 272 301 305 293 290 292 277 277 271 288 282 278 279 282 281 280 282 283 281 280 282 288 294 299 304
227 235 244 262 277 287 287 287 283 273 281 291 302 299 277 276 279 291 284 295 283 278 279 281 280 282 287 293 294 293 291 289 285 281 275 273 272 277 285 288 292 301 302
223 231 234 261 274 291 295 286 284 282 279 276 273 274 276 280 274 288 290 288 289 285 283 282 280 281 281 285 288 290 289 287 282 264 260 264 272 281 285 289 292 297 296
221 224 227 252 266 283 282 279 275 276 277 277 278 281 284 292 291 291 294 297 298 292 289 284 284 286 293 296 291 296 286 280 279 282 287 288 288 290 295 295 292 292 295
221 217 216 241 267 274 281 281 284 281 282 282 285 285 289 292 296 298 298 299 303 302 299 297 297 292 288 281 282 281 278 284 289 293 294 295 296 298 297 286 286 289 296
207 213 230 247 257 264 278 285 290 289 278 284 289 290 292 292 290 289 292 297 299 304 297 297 295 292 282 278 275 277 279 281 284 291 295 296 295 295 283 277 281 288 293
187 189 212 234 244 267 277 290 300 298 287 287 290 290 289 290 292 294 296 298 298 297 299 300 296 290 287 282 278 279 281 285 286 287 294 295 291 286 277 278 283 286 285
211 221 233 265 284 298 296 300 301 297 296 297 298 300 302 303 302 302 303 303 300 297 297 298 301 304 303 299 297 295 299 300 297 301 301 300 300 291 279 279 282 278 286
215 283 302 313 309 296 300 302 304 310 311 311 310 308 306 306 308 312 308 304 302 301 300 299 302 305 307 309 307 307 304 303 298 299 302 301 294 290 290 277 275 279 285
12 2 351 325 311 307 309 312 312 310 309 310 316 321 322 326 325 320 310 304 304 304 302 300 302 303 303 305 305 301 300 302 297 298 294 291 287 286 288 279 276 280 281
346 348 321 312 305 307 312 317 321 329 333 330 326 329 334 332 322 312 309 308 307 305 304 303 303 305 304 306 305 300 299 294 289 283 278 278 279 282 287 277 277 280 279
331 310 296 292 306 313 324 346 355 350 349 344 343 344 333 324 309 310 310 309 310 310 310 309 305 308 312 313 312 312 309 311 307 292 288 286 280 279 278 270 272 275 285
328 318 325 341 348 356 351 10 4 358 352 354 351 346 342 340 328 319 313 309 308 307 307 311 308 308 309 313 314 314 313 311 302 313 301 290 283 280 279 276 278 282 275
8 5 25 11 357 352 12 16 8 5 2 4 2 357 348 336 330 330 328 327 332 326 320 315 313 310 311 315 313 315 317 313 305 300 291 285 283 276 280 289 291 258 260
35 44 48 29 10 17 9 12 18 18 23 16 10 358 344 340 339 340 340 337 333 332 331 333 325 320 314 315 311 317 315 307 308 303 308 293 298 284 280 290 260 273 290
52 62 54 41 34 25 7 17 17 25 25 18 10 358 351 349 350 347 342 347 347 347 341 337 334 333 323 331 318 321 325 312 311 311 335 302 314 302 291 227 270 289 297
65 83 70 52 41 24 15 20 21 34 27 19 15 8 4 2 355 351 351 351 349 351 348 358 6 1 360 358 340 327 316 310 306 314 354 325 342 327 9 210 249 283 298